GW4151 Weather Reports


time (UTC)temp
F
wind
direction
speed
knots
gust
knots
rain 1hr
in
rain 24hr
in
rain mn
in
humidity
%
barometer
mb
20260506092513 39 230 0.9 1.7 0.00 0.00 0.00 81 990.9
20260506091010 39 236 1.7 1.7 0.00 0.00 0.00 81 990.5
20260506085507 39 231 0.9 1.7 0.00 0.00 0.00 82 990.3
20260506084008 39 227 0.9 0.9 0.00 0.00 0.00 85 990.4
20260506082505 39 211 0.0 1.7 0.00 0.00 0.00 85 990.5
20260506081002 39 217 0.0 1.7 0.00 0.00 0.00 86 990.4
20260506072454 40 212 0.0 1.7 0.00 0.00 0.00 83 990.5
20260506070952 40 251 0.9 1.7 0.00 0.00 0.00 84 990.6
20260506062445 41 274 2.6 2.6 0.00 0.00 0.00 80 990.7
20260506060941 41 243 0.9 1.7 0.00 0.00 0.00 79 990.7
20260506050925 42 285 1.7 3.5 0.00 0.00 0.00 75 991.0
20260506043920 43 276 1.7 3.5 0.00 0.00 0.00 75 990.7
20260506042420 43 287 2.6 3.5 0.00 0.00 0.00 75 990.0
20260506040917 43 215 0.9 1.7 0.00 0.00 0.00 76 990.1
20260506035414 44 291 0.9 3.5 0.00 0.01 0.01 74 990.1
20260506033910 44 263 1.7 2.6 0.00 0.01 0.01 72 990.0
20260506032407 44 212 0.0 0.9 0.00 0.01 0.01 71 989.7
20260506030904 44 259 0.9 1.7 0.00 0.01 0.01 68 989.9
20260506025402 44 238 1.7 1.7 0.00 0.01 0.01 67 990.2
20260506023857 44 205 0.0 0.9 0.00 0.01 0.01 68 989.6
20260506022354 45 226 0.9 0.9 0.00 0.01 0.01 67 989.7
20260506020852 46 218 0.9 0.9 0.00 0.01 0.01 61 989.3
20260506015350 45 208 0.0 0.0 0.00 0.01 0.01 63 989.3
20260506013846 44 208 0.9 0.9 0.00 0.01 0.01 65 989.1
20260506012343 44 194 0.0 0.0 0.00 0.01 0.01 67 988.9
20260506010840 45 183 0.0 0.0 0.00 0.01 0.01 66 988.7
20260506005337 47 184 0.0 0.0 0.00 0.01 0.01 59 988.7
20260506003832 48 202 0.0 0.0 0.00 0.01 0.01 52 988.5
20260506002328 49 202 0.0 0.9 0.00 0.01 0.01 49 988.6
20260506000823 50 282 1.7 3.5 0.00 0.01 0.01 48 988.6
20260505235321 50 210 3.5 3.5 0.00 0.01 0.01 46 988.5
20260505233818 50 248 1.7 2.6 0.00 0.01 0.01 47 988.6
20260505232317 50 284 2.6 3.5 0.00 0.01 0.01 45 988.6
20260505230815 51 226 1.7 3.5 0.00 0.01 0.01 45 988.6
20260505225312 51 281 1.7 3.5 0.00 0.01 0.01 45 988.6
20260505223808 51 254 1.7 5.2 0.00 0.01 0.01 45 988.9
20260505222309 51 258 3.5 5.2 0.00 0.01 0.01 45 988.7
20260505220805 51 283 3.5 7.0 0.00 0.01 0.01 45 988.9
20260505215305 51 270 3.5 6.1 0.00 0.01 0.01 45 988.5
20260505213802 51 211 1.7 5.2 0.00 0.01 0.01 45 988.8
20260505212259 51 187 1.7 7.8 0.00 0.01 0.01 45 988.7
20260505210754 51 232 4.3 7.0 0.00 0.01 0.01 45 988.9
20260505205253 52 265 5.2 7.8 0.00 0.01 0.01 44 989.0
20260505203749 53 299 2.6 6.1 0.00 0.01 0.01 44 988.9
20260505202244 53 281 3.5 6.1 0.00 0.01 0.01 43 989.0
20260505200743 53 316 1.7 7.8 0.00 0.01 0.01 45 989.0
20260505195238 52 227 5.2 7.8 0.00 0.01 0.01 43 989.2
20260505193733 52 257 4.3 7.8 0.00 0.01 0.01 45 988.9
20260505192233 52 307 6.1 7.8 0.00 0.01 0.01 43 989.0
20260505190731 54 261 6.1 8.7 0.00 0.01 0.01 43 989.0
20260505185230 52 282 5.2 8.7 0.00 0.01 0.01 43 988.8
20260505183726 52 243 3.5 9.6 0.00 0.01 0.01 42 988.5
20260505182223 52 353 5.2 11.3 0.00 0.01 0.01 43 988.7
20260505180719 52 297 4.3 7.8 0.00 0.01 0.01 43 988.5
20260505175214 52 352 5.2 12.2 0.00 0.01 0.01 43 988.8
20260505173710 53 288 11.3 12.2 0.00 0.01 0.01 40 988.5
20260505172206 52 265 6.1 12.2 0.00 0.01 0.01 42 988.4
20260505170706 52 274 7.8 13.0 0.00 0.01 0.01 40 988.1
20260505165205 51 213 6.1 12.2 0.00 0.01 0.01 40 987.8
20260505163702 51 333 7.8 8.7 0.00 0.01 0.01 39 987.9
20260505162200 51 279 3.5 8.7 0.00 0.01 0.01 40 987.9
20260505160657 51 296 8.7 12.2 0.00 0.01 0.01 38 988.0
20260505152144 51 261 5.2 13.0 0.00 0.01 0.01 41 988.1
20260505150644 49 291 5.2 8.7 0.00 0.01 0.01 43 988.3
20260505140633 49 242 7.0 9.6 0.00 0.01 0.01 45 988.0
20260505123611 47 289 1.7 7.0 0.00 0.01 0.01 70 986.8
20260505122108 47 261 7.8 11.3 0.00 0.01 0.01 71 987.3
20260505120603 47 297 3.5 5.2 0.00 0.01 0.01 75 985.8
20260505115103 47 288 1.7 3.5 0.00 0.01 0.01 79 985.6
20260505113559 45 266 4.3 6.1 0.00 0.01 0.01 84 985.8
20260505112056 45 271 2.6 6.1 0.00 0.01 0.01 85 985.4
20260505110554 46 274 5.2 7.0 0.00 0.01 0.01 85 984.9
20260505102044 45 304 2.6 5.2 0.00 0.01 0.01 84 984.1
20260505100541 45 234 1.7 2.6 0.00 0.01 0.01 84 983.9
20260505095037 45 259 3.5 7.0 0.00 0.01 0.01 82 984.0
20260505093532 47 287 2.6 6.1 0.00 0.01 0.01 78 983.3